Weather reports worldwide

Advertisment
Calatayud, Spain (8156): temperature & dewpoint: 17.05.2019 14:00:00 - 23.05.2019 14:00:00 (CEST)Calatayud, Spain (8156): wind speed & gusts: 17.05.2019 14:00:00 - 23.05.2019 14:00:00 (CEST)Calatayud, Spain (8156): wind direction: 17.05.2019 14:00:00 - 23.05.2019 14:00:00 (CEST)Calatayud, Spain (8156): reduced air pressure: 17.05.2019 14:00:00 - 23.05.2019 14:00:00 (CEST)Calatayud, Spain (8156): visibility: 17.05.2019 14:00:00 - 23.05.2019 14:00:00 (CEST)Calatayud, Spain (8156): sunshine duration: 17.05.2019 14:00:00 - 23.05.2019 14:00:00 (CEST)Calatayud, Spain (8156): precipitation: 17.05.2019 14:00:00 - 23.05.2019 14:00:00 (CEST)
Date & Time tt [°C] td [°C] ff [km/h] ff [kn] fx [km/h] fx [kn] dd ppp [hPa] vv [km] sd [min] rr [mm]
23.05.2019 14:00:00 - - - - - - - - - - -
23.05.2019 13:00:00 22,7 9,2 5 3 12 7 NNE 1014,5 20 60 0,0
23.05.2019 12:00:00 19,3 8,3 5 3 9 5 NNE 1016,1 20 51 0,0
23.05.2019 11:00:00 16,3 7,3 2 1 6 3 NNW 1017,1 20 1 0,0
23.05.2019 10:00:00 13,2 7,8 4 2 7 4 SW 1018,1 20 0 0,0
23.05.2019 09:00:00 12,4 7,4 3 2 6 3 N 1018,1 20 2 0,0
23.05.2019 08:00:00 10,9 6,8 3 2 5 3 SW 1018,5 20 16 -
23.05.2019 07:00:00 10,3 6,7 2 1 5 3 N 1018,3 20 0 0,0
23.05.2019 06:00:00 10,8 6,5 1 1 3 2 N 1018,2 20 0 0,0
23.05.2019 05:00:00 11,3 6,4 1 1 5 3 SSE 1017,9 20 0 0,0
23.05.2019 04:00:00 12,3 6,5 3 1 4 2 NNW 1017,7 20 0 0,0
23.05.2019 03:00:00 13,4 6,2 2 1 5 3 S 1017,7 20 0 0,0
23.05.2019 02:00:00 14,8 6,4 3 1 5 3 ENE 1017,6 20 0 -
23.05.2019 01:00:00 15,6 6,5 2 1 14 8 SSW 1017,2 20 0 0,0
23.05.2019 00:00:00 16,8 5,8 5 3 8 4 SSW 1016,9 20 0 0,0
22.05.2019 23:00:00 18,8 5,6 4 2 19 10 SSW 1016,0 20 0 0,0
22.05.2019 22:00:00 20,2 4,3 12 7 25 14 ENE 1014,9 20 0 0,0
22.05.2019 21:00:00 22,3 4,3 18 10 34 18 NE 1013,9 20 60 0,0
22.05.2019 20:00:00 23,7 5,1 22 12 36 19 NE 1012,9 20 60 -
22.05.2019 19:00:00 24,7 5,5 21 11 33 18 NE 1012,4 20 60 0,0
22.05.2019 18:00:00 25,4 6,1 19 11 29 15 NE 1012,5 20 60 0,0
22.05.2019 17:00:00 25,7 5,8 14 8 29 16 NE 1012,8 20 60 0,0
22.05.2019 16:00:00 25,3 5,0 16 8 27 14 NE 1013,2 20 60 0,0
22.05.2019 15:00:00 24,7 3,9 6 3 14 8 NNW 1014,1 20 60 0,0
22.05.2019 14:00:00 23,6 4,5 6 4 15 8 NNE 1014,9 20 60 -
22.05.2019 13:00:00 21,4 3,9 5 3 15 8 NW 1016,1 20 60 0,0
22.05.2019 12:00:00 18,9 4,3 4 2 9 5 N 1016,9 20 60 0,0
22.05.2019 11:00:00 16,0 5,3 4 2 7 4 W 1017,8 20 60 0,0
22.05.2019 10:00:00 13,0 5,6 4 2 6 4 W 1018,7 20 60 0,0
22.05.2019 09:00:00 10,4 5,3 3 2 8 4 W 1019,6 20 60 0,0
22.05.2019 08:00:00 8,8 4,6 5 3 8 5 NE 1019,8 20 47 -
22.05.2019 07:00:00 7,4 3,8 3 1 7 4 SSE 1019,7 20 0 0,0
22.05.2019 06:00:00 8,1 3,9 3 2 8 4 S 1019,3 20 0 0,0
22.05.2019 05:00:00 8,8 4,3 3 2 6 3 SSW 1019,0 20 0 0,0
22.05.2019 04:00:00 10,1 4,3 2 1 8 5 ENE 1018,7 20 0 0,0
22.05.2019 03:00:00 10,8 4,3 2 1 11 6 W 1018,4 20 0 0,0
22.05.2019 02:00:00 11,2 4,6 5 3 9 5 S 1018,2 20 0 -
22.05.2019 01:00:00 13,5 3,8 3 1 9 5 SW 1017,7 20 0 0,0
22.05.2019 00:00:00 15,1 3,2 4 2 25 14 SE 1017,2 20 0 0,0
21.05.2019 23:00:00 16,4 2,5 15 8 27 14 ENE 1016,3 20 0 0,0
21.05.2019 22:00:00 17,7 2,9 16 9 27 14 ENE 1015,0 20 17 0,0
21.05.2019 21:00:00 20,2 1,1 18 10 29 16 ENE 1013,8 20 60 0,0
21.05.2019 20:00:00 21,8 0,9 16 8 30 16 E 1012,6 20 60 -
21.05.2019 19:00:00 22,1 -0,7 18 10 30 16 ENE 1012,2 20 60 0,0
21.05.2019 18:00:00 22,7 0,4 13 7 30 16 ENE 1012,2 20 60 0,0
21.05.2019 17:00:00 22,3 2,9 18 10 31 17 NNE 1012,3 20 60 0,0
21.05.2019 16:00:00 21,7 4,3 16 9 31 17 NE 1012,7 20 60 0,0
21.05.2019 15:00:00 21,2 4,3 14 8 28 15 ENE 1013,2 20 60 0,0
21.05.2019 14:00:00 20,7 3,0 11 6 22 12 NNE 1013,6 20 60 -
21.05.2019 13:00:00 18,9 2,7 13 7 22 12 NNE 1014,4 20 60 0,0
21.05.2019 12:00:00 17,0 5,0 10 5 19 10 NNE 1015,1 20 60 0,0
21.05.2019 11:00:00 14,8 4,8 6 3 10 6 NNE 1015,8 20 60 0,0
21.05.2019 10:00:00 12,2 5,6 2 1 6 3 W 1016,4 20 60 0,0
21.05.2019 09:00:00 8,2 4,5 2 1 5 3 W 1017,3 20 58 0,0
21.05.2019 08:00:00 6,7 3,4 2 1 9 5 S 1017,4 20 32 -
21.05.2019 07:00:00 6,7 3,8 2 1 6 3 E 1016,9 20 0 0,0
21.05.2019 06:00:00 7,3 4,3 4 2 8 4 SW 1016,4 20 0 0,0
21.05.2019 05:00:00 7,6 4,1 4 2 8 4 SE 1016,4 20 0 0,0
21.05.2019 04:00:00 8,0 4,3 5 3 13 7 S 1016,1 20 0 0,0
21.05.2019 03:00:00 10,5 4,5 3 2 6 3 SSE 1015,7 20 0 0,0
21.05.2019 02:00:00 12,5 3,9 6 3 19 10 NE 1015,2 20 0 -
21.05.2019 01:00:00 13,1 3,9 13 7 29 16 ENE 1014,9 20 0 0,0
21.05.2019 00:00:00 13,8 4,1 18 10 28 15 ENE 1014,2 20 0 0,0
20.05.2019 23:00:00 14,6 3,8 19 11 32 18 ENE 1013,3 20 0 0,0
20.05.2019 22:00:00 15,4 4,1 18 10 31 17 ENE 1012,1 20 0 0,0
20.05.2019 21:00:00 17,1 4,1 20 11 36 20 ENE 1010,8 20 53 0,0
20.05.2019 20:00:00 18,9 3,4 21 11 35 19 ENE 1010,0 20 60 -
20.05.2019 19:00:00 19,9 2,7 20 11 34 18 NE 1009,6 20 60 0,0
20.05.2019 18:00:00 20,7 2,5 16 9 34 18 NE 1009,3 20 60 0,0
20.05.2019 17:00:00 21,0 0,2 7 4 25 13 N 1009,7 20 60 0,0
20.05.2019 16:00:00 20,9 2,3 11 6 21 11 NNE 1010,3 20 53 0,0
20.05.2019 15:00:00 19,4 2,3 6 3 16 9 N 1011,4 20 60 0,0
20.05.2019 14:00:00 17,8 3,9 8 4 16 9 WSW 1012,1 20 60 -
20.05.2019 13:00:00 16,1 3,2 4 2 14 8 NE 1012,9 20 60 0,0
20.05.2019 12:00:00 14,4 4,6 4 2 11 6 SE 1013,7 20 60 0,0
20.05.2019 11:00:00 11,9 5,3 3 2 9 5 NW 1014,7 20 60 0,0
20.05.2019 10:00:00 9,6 4,6 3 2 7 4 W 1015,4 20 60 0,0
20.05.2019 09:00:00 7,1 4,1 2 1 4 2 W 1015,9 20 60 0,0
20.05.2019 08:00:00 4,9 3,0 1 1 9 5 S 1016,3 20 45 -
20.05.2019 07:00:00 4,2 2,5 3 2 5 3 S 1015,9 11 0 0,0
20.05.2019 06:00:00 4,6 2,7 3 1 10 5 SSE 1015,6 20 0 0,0
20.05.2019 05:00:00 5,4 3,2 7 4 13 7 S 1015,3 20 0 0,0
20.05.2019 04:00:00 5,6 3,0 1 1 10 5 N 1015,3 20 0 0,0
20.05.2019 03:00:00 6,1 3,6 7 4 16 8 S 1015,5 20 0 0,0
20.05.2019 02:00:00 7,8 3,8 2 1 11 6 SSE 1015,2 20 0 -
20.05.2019 01:00:00 8,6 4,3 8 4 13 7 S 1015,1 20 0 0,0
20.05.2019 00:00:00 9,9 4,5 3 2 15 8 ESE 1014,8 20 0 0,0
19.05.2019 23:00:00 10,6 4,5 10 5 21 11 ENE 1014,2 20 0 0,0
19.05.2019 22:00:00 11,5 4,6 13 7 26 14 ENE 1013,2 20 14 0,0
19.05.2019 21:00:00 13,6 4,1 20 11 32 17 ENE 1011,8 20 49 0,0
19.05.2019 20:00:00 15,7 4,1 17 9 28 15 NE 1010,6 20 56 -
19.05.2019 19:00:00 17,3 4,3 14 8 26 14 NE 1010,0 20 48 0,0
19.05.2019 18:00:00 13,7 5,8 8 4 42 23 WSW 1011,0 20 4 0,0
19.05.2019 17:00:00 16,1 5,3 11 6 32 17 W 1010,2 20 28 0,0
19.05.2019 16:00:00 16,3 3,9 10 6 35 19 NW 1010,3 20 13 0,0
19.05.2019 15:00:00 15,6 2,1 22 12 40 22 WNW 1010,4 20 16 0,0
19.05.2019 14:00:00 15,1 3,2 19 10 32 18 NW 1010,6 20 11 -
19.05.2019 13:00:00 15,0 4,1 20 11 35 19 WNW 1010,5 20 48 0,0
19.05.2019 12:00:00 13,0 5,0 13 7 26 14 WSW 1011,2 20 54 0,0
19.05.2019 11:00:00 12,0 5,0 14 8 23 12 W 1011,7 20 38 0,0
19.05.2019 10:00:00 9,0 4,8 7 4 16 9 WSW 1012,5 20 1 0,0
19.05.2019 09:00:00 7,7 4,5 5 3 11 6 WSW 1012,6 20 0 0,0
19.05.2019 08:00:00 6,7 4,8 4 2 10 6 S 1012,7 20 0 -
19.05.2019 07:00:00 6,2 4,5 5 3 8 4 SSE 1012,6 20 0 0,0
19.05.2019 06:00:00 5,7 4,1 5 3 8 4 S 1012,7 20 0 0,0
19.05.2019 05:00:00 5,1 3,4 3 2 9 5 S 1012,8 20 0 0,0
19.05.2019 04:00:00 5,6 3,8 3 1 8 4 SSW 1012,7 18 0 0,0
19.05.2019 03:00:00 6,1 4,3 4 2 8 4 SW 1012,7 20 0 0,0
19.05.2019 02:00:00 6,9 4,6 2 1 6 3 WNW 1013,0 20 0 -
19.05.2019 01:00:00 7,0 4,8 3 2 8 5 NE 1013,0 20 0 0,0
19.05.2019 00:00:00 7,6 5,0 6 4 11 6 S 1013,0 20 0 0,0
18.05.2019 23:00:00 8,4 5,5 3 2 6 4 SSE 1012,9 20 0 0,0
18.05.2019 22:00:00 9,2 5,6 4 2 14 7 SE 1012,1 20 0 0,0
18.05.2019 21:00:00 9,6 5,9 14 7 29 15 ENE 1011,4 20 0 1,0
18.05.2019 20:00:00 11,9 5,5 5 3 18 10 E 1010,1 3,6 18 -
18.05.2019 19:00:00 12,3 6,1 9 5 29 16 E 1009,3 20 10 0,2
18.05.2019 18:00:00 13,0 5,6 10 5 35 19 NNE 1009,2 20 13 0,0
18.05.2019 17:00:00 13,3 4,6 23 12 36 19 NE 1008,2 20 25 0,0
18.05.2019 16:00:00 16,3 2,7 9 5 22 12 NNE 1007,5 20 20 0,0
18.05.2019 15:00:00 15,4 1,5 3 2 22 12 NE 1007,8 20 14 0,0
18.05.2019 14:00:00 14,3 2,5 14 8 37 20 WSW 1008,4 20 15 -
18.05.2019 13:00:00 14,7 1,5 19 10 35 19 WSW 1008,5 20 38 0,0
18.05.2019 12:00:00 13,5 1,1 14 8 29 16 W 1009,0 20 46 0,0
18.05.2019 11:00:00 12,2 4,5 12 6 25 14 W 1009,5 20 53 0,0
18.05.2019 10:00:00 10,1 6,2 5 3 11 6 SW 1010,2 20 25 0,0
18.05.2019 09:00:00 8,5 6,1 1 1 9 5 SW 1010,5 20 11 0,2
18.05.2019 08:00:00 7,2 5,1 5 3 9 5 S 1010,5 20 0 -
18.05.2019 07:00:00 7,0 4,8 3 2 7 4 SW 1010,5 20 0 0,0
18.05.2019 06:00:00 7,1 4,6 4 2 7 4 SW 1010,3 20 0 0,0
18.05.2019 05:00:00 7,6 4,6 3 1 11 6 E 1010,4 20 0 0,0
18.05.2019 04:00:00 7,4 4,6 3 1 10 5 WSW 1010,9 20 0 0,0
18.05.2019 03:00:00 7,3 4,5 6 3 9 5 SSW 1011,1 20 0 0,0
18.05.2019 02:00:00 8,1 4,6 4 2 9 5 NNE 1011,4 20 0 -
18.05.2019 01:00:00 8,7 4,5 3 2 10 6 SW 1011,3 20 0 0,0
18.05.2019 00:00:00 9,2 3,8 4 2 9 5 NNW 1011,3 20 0 0,0
17.05.2019 23:00:00 10,2 3,8 3 2 7 4 W 1011,0 20 0 0,0
17.05.2019 22:00:00 11,5 3,0 5 3 21 11 NW 1010,2 20 9 0,0
17.05.2019 21:00:00 12,3 2,7 13 7 22 12 WNW 1009,8 20 5 0,0
17.05.2019 20:00:00 12,8 3,8 13 7 27 14 NNW 1009,4 20 0 -
17.05.2019 19:00:00 13,0 3,9 10 5 30 16 NW 1009,0 20 0 0,0
17.05.2019 18:00:00 13,3 3,6 20 11 30 16 WNW 1008,5 20 0 0,0
17.05.2019 17:00:00 13,4 3,2 20 11 37 20 WNW 1008,3 20 0 0,0
17.05.2019 16:00:00 13,4 3,9 23 13 41 22 W 1008,1 20 1 0,0
17.05.2019 15:00:00 13,0 3,4 24 13 45 24 NW 1008,1 20 0 0,0
17.05.2019 14:00:00 12,8 4,3 25 14 40 22 WNW 1007,7 20 0 -

tt = temperature
td = dewpoint
ff = wind speed
fx = gusts
dd = wind direction
ppp = reduced air pressure
vv = visibility
sd = sunshine duration
rr = precipitation

Next stations